Weather in Madmas

Russia / Komi Republic     62°01′40″N   49°19′09″E
temp.,
°C
wind,
m/s
gust,
m/s
humid.,
%
clouds,
%
prec.,
mm/h
press.,
hPa
HPBL,
m
14 may, fri
fri1400:00+16ssw27665 0.0 1019106
03:00+14ssw277074 0.0 1018134
06:00+18ssw386699 0.0 1017316
09:00+22sw47548 0.0 10161293
12:00+22wsw585847 0.1 10161466
15:00+25wsw59345 0.1 10152719
18:00+22wsw4842100 0.0 10151074
21:00+16wsw2363100 0.0 101552
15 may, sat
sat1500:00+14wsw2365100 0.0 101548
03:00+11sw237399 0.0 101556
06:00+15wsw2561100 0.0 1016233
09:00+18wsw3547100 0.0 1016815
12:00+19sw5651100 0.0 10161269
15:00+15sw2676100 0.1 1016328
18:00+18ssw0165100 0.1 1014300
21:00+13se228844 0.1 101436
16 may, sun
sun1600:00+13se249198 0.0 101295
03:00+13se1494100 0.1 1011128
06:00+15s3687100 0.3 1010393
09:00+22ssw59583 0.3 10091182
12:00+25sw610360 0.0 10092303
15:00+25sw6103425 0.0 10082923
18:00+23sw494375 0.0 10072204
21:00+17s3969100 0.1 1007231
17 may, mon
mon1700:00+15ssw4128099 0.6 1007462
03:00+14sw4118996 0.6 1008557
06:00+14wsw5982100 0.0 1009833
09:00+18wsw61057100 0.1 10101617
12:00+19w51048100 0.0 10111940
15:00+19nw6105161 0.0 10121676
18:00+16nw586631 0.0 10141026
21:00+11nnw26889 0.0 1016349
18 may, tue
tue1800:00+9nnw259724 0.0 1017153
03:00+10wnw128696 0.0 1018123
06:00+11n1282100 0.0 1019371
09:00+13ne2271100 0.0 1020721
12:00+17ese215547 0.0 10201092
15:00+20se22474 0.0 10191342
18:00+19se235390 0.0 1019953
21:00+13ese2677100 0.0 1019107